This is the latest recevied weather packets stored in our database for station/object YO6KXQ-10. If no packets are shown the sender has not sent any weather packets the latest 10 day(s).
| Time | Temp. | Humidity | Pressure | Rain* | Wind** | Luminosity | Snow |
|---|---|---|---|---|---|---|---|
| 1777703498 | 16.11° C | 54% | 1026.2 hPa | - | - | - | - |
| 1777702478 | 16.11° C | 54% | 1026.1 hPa | - | - | - | - |
| 1777701458 | 16.11° C | 54% | 1026.2 hPa | - | - | - | - |
| 1777700438 | 16.11° C | 54% | 1026 hPa | - | - | - | - |
| 1777699417 | 16.11° C | 54% | 1026.1 hPa | - | - | - | - |
| 1777698396 | 16.67° C | 53% | 1026 hPa | - | - | - | - |
| 1777697376 | 16.11° C | 54% | 1026 hPa | - | - | - | - |
| 1777696356 | 15.56° C | 55% | 1025.8 hPa | - | - | - | - |
| 1777695336 | 15.56° C | 55% | 1025.9 hPa | - | - | - | - |
| 1777694316 | 15.56° C | 55% | 1025.8 hPa | - | - | - | - |
| 1777693296 | 15.56° C | 55% | 1025.9 hPa | - | - | - | - |
| 1777692275 | 15.56° C | 55% | 1025.8 hPa | - | - | - | - |
| 1777691255 | 15.56° C | 55% | 1025.8 hPa | - | - | - | - |
| 1777690235 | 15.56° C | 55% | 1025.7 hPa | - | - | - | - |
| 1777689215 | 15.56° C | 54% | 1025.7 hPa | - | - | - | - |
| 1777670852 | 16.11° C | 53% | 1026.7 hPa | - | - | - | - |
| 1777669832 | 16.67° C | 54% | 1026.6 hPa | - | - | - | - |
| 1777667791 | 16.67° C | 53% | 1026.5 hPa | - | - | - | - |
| 1777664731 | 16.67° C | 53% | 1026.6 hPa | - | - | - | - |
| 1777663711 | 16.67° C | 53% | 1026.6 hPa | - | - | - | - |
| 1777660650 | 16.67° C | 53% | 1026.6 hPa | - | - | - | - |
| 1777659630 | 16.67° C | 52% | 1026.5 hPa | - | - | - | - |
| 1777656565 | 16.67° C | 51% | 1026.1 hPa | - | - | - | - |
| 1777655544 | 17.22° C | 51% | 1026 hPa | - | - | - | - |
| 1777654524 | 17.22° C | 50% | 1026 hPa | - | - | - | - |
* Rain since midnight (hover to see other rain measurements)
** Current wind speed in m/s (hover to see current wind gust speed)